Weather History for North Platte, NE

Change the Weather History Date:

Friday, March 29, 2013

  Actual Average Record
Temperature  
Mean Temperature 51 °F 42 °F  
Max Temperature 71 °F 57 °F 86 °F (1943)
Min Temperature 31 °F 27 °F -8 °F (1886)
Degree Days  
Heating Degree Days 14 23  
Month to date heating degree days 842 791  
Since 1 July heating degree days 5802 5819  
Cooling Degree Days 0 0  
Month to date cooling degree days 0 0  
Year to date cooling degree days 0 0  
Growing Degree Days 2 (Base 50)    
Moisture  
Dew Point 37 °F    
Average Humidity 61    
Maximum Humidity 89    
Minimum Humidity 32    
Precipitation  
Precipitation 0.28 in 0.05 in 1.16 in (1891)
Month to date precipitation 0.49 0.96  
Year to date precipitation 1.77 1.80  
Snow  
Snow 0.00 in 0.10 in 12.00 in (1891)
Month to date snowfall 2.7 4.1  
Since 1 July snowfall 22.6 25.0  
Snow Depth 0.00 in    
Sea Level Pressure  
Sea Level Pressure 30.04 in    
Wind  
Wind Speed 9 mph (SSE)    
Max Wind Speed 22 mph    
Max Gust Speed 26 mph    
Visibility 10 miles    
Events Rain , Thunderstorm    
T = Trace of Precipitation, MM = Missing Value Source: NWS Daily Summary

Daily Weather History Graph

Daily Weather History Graph

Search for Another Location

Airport:

Trip Planner

Search our weather history database for the weather conditions in past years. The results will help you decide how hot, cold, wet, or windy it might be!

Date:

Astronomy

Mar. 29, 2013 Rise Set
Actual Time 7:30 AM CDT 8:04 PM CDT
Civil Twilight 7:02 AM CDT 8:32 PM CDT
Nautical Twilight 6:30 AM CDT 9:05 PM CDT
Astronomical Twilight 5:56 AM CDT 9:39 PM CDT
Moon 11:08 PM CDT (3/29) 8:39 AM CDT (3/29)
Length of Visible Light 13h 29m
Length of Day
12h 34m
Waning Gibbous, 93% of the Moon is Illuminated
Mar 29
Waning Gibbous
Apr 2
Last Quarter
Apr 10
New
Apr 18
First Quarter
Apr 25
Full

Hourly Weather History & Observations

Time (CDT) Temp. Windchill Dew Point Humidity Pressure Visibility Wind Dir Wind Speed Gust Speed Precip Events Conditions
12:53 AM 39.9 °F 33.9 °F 28.0 °F 63% 30.12 in 10.0 mi East 9.2 mph - N/A   Clear
1:53 AM 39.9 °F 34.5 °F 28.0 °F 63% 30.12 in 10.0 mi East 8.1 mph - N/A   Partly Cloudy
2:53 AM 39.0 °F 34.0 °F 28.0 °F 65% 30.12 in 10.0 mi East 6.9 mph - N/A   Mostly Cloudy
3:53 AM 44.1 °F 38.6 °F 28.0 °F 53% 30.11 in 10.0 mi SSE 10.4 mph - N/A   Overcast
4:53 AM 42.1 °F 38.4 °F 28.0 °F 58% 30.11 in 10.0 mi South 5.8 mph - N/A   Overcast
5:53 AM 37.0 °F - 28.0 °F 70% 30.12 in 10.0 mi Calm Calm - N/A   Overcast
6:53 AM 34.0 °F - 27.0 °F 75% 30.14 in 10.0 mi Calm Calm - N/A   Overcast
7:53 AM 32.0 °F 28.7 °F 26.1 °F 79% 30.14 in 10.0 mi ENE 3.5 mph - N/A   Mostly Cloudy
8:53 AM 39.9 °F - 30.9 °F 70% 30.15 in 10.0 mi Calm Calm - N/A   Clear
9:53 AM 48.0 °F - 33.1 °F 56% 30.14 in 10.0 mi SSE 4.6 mph - N/A   Partly Cloudy
10:53 AM 57.9 °F - 39.0 °F 49% 30.11 in 10.0 mi South 11.5 mph - N/A   Partly Cloudy
11:53 AM 57.9 °F - 39.9 °F 51% 30.11 in 10.0 mi South 11.5 mph 16.1 mph N/A   Mostly Cloudy
12:53 PM 64.9 °F - 39.9 °F 40% 30.07 in 10.0 mi South 12.7 mph 20.7 mph N/A   Mostly Cloudy
1:53 PM 66.9 °F - 37.9 °F 34% 30.04 in 10.0 mi South 12.7 mph 20.7 mph N/A   Mostly Cloudy
2:53 PM 68.0 °F - 39.0 °F 35% 30.01 in 10.0 mi SSE 13.8 mph 23.0 mph N/A   Partly Cloudy
3:53 PM 68.0 °F - 39.0 °F 35% 29.97 in 10.0 mi South 13.8 mph 20.7 mph N/A   Mostly Cloudy
4:53 PM 68.0 °F - 37.9 °F 33% 29.94 in 10.0 mi South 18.4 mph 26.5 mph N/A   Partly Cloudy
5:32 PM 66.2 °F - 37.4 °F 35% 29.94 in 10.0 mi South 15.0 mph 24.2 mph N/A Thunderstorm Mostly Cloudy
5:53 PM 66.0 °F - 37.9 °F 36% 29.93 in 10.0 mi South 15.0 mph 24.2 mph 0.00 in Rain Light Rain
6:11 PM 62.6 °F - 42.8 °F 48% 29.94 in 9.0 mi Variable 3.5 mph 16.1 mph 0.00 in Rain , Thunderstorm Light Thunderstorms and Rain
6:49 PM 57.2 °F - 44.6 °F 63% 29.98 in 10.0 mi North 16.1 mph 25.3 mph 0.07 in Rain , Thunderstorm Light Thunderstorms and Rain
6:53 PM 57.0 °F - 45.0 °F 64% 30.01 in 9.0 mi NNW 12.7 mph 25.3 mph 0.07 in Rain , Thunderstorm Light Thunderstorms and Rain
7:04 PM 53.6 °F - 46.4 °F 77% 29.96 in 1.8 mi South 11.5 mph - 0.05 in Rain , Thunderstorm Heavy Thunderstorms and Rain
7:14 PM 50.0 °F - 44.6 °F 82% 29.96 in 3.0 mi SE 9.2 mph - 0.21 in Rain , Thunderstorm Light Thunderstorms and Rain
7:41 PM 55.4 °F - 44.6 °F 67% 29.97 in 10.0 mi SE 11.5 mph - 0.21 in   Partly Cloudy
7:53 PM 55.0 °F - 45.0 °F 69% 29.99 in 10.0 mi SE 12.7 mph 19.6 mph 0.21 in   Clear
8:53 PM 51.1 °F - 46.0 °F 83% 29.97 in 10.0 mi SE 9.2 mph - N/A   Overcast
9:53 PM 48.0 °F - 44.1 °F 86% 29.96 in 10.0 mi ESE 4.6 mph - N/A   Scattered Clouds
10:53 PM 46.0 °F - 43.0 °F 89% 29.96 in 10.0 mi Calm Calm - N/A   Clear
11:53 PM 43.0 °F 39.5 °F 39.9 °F 89% 29.96 in 10.0 mi East 5.8 mph - N/A   Clear